Location: ?????
(54.9266°N, 38.5527°E)
Time: 20:20:43
(UTC+00:00)

deb REX - Pass Details

Date: 23 September 2024
Orbit: 705 x 731 km, 89.8° (Epoch: 09 October)

Event Time Altitude Azimuth Distance (km) Brightness Sun altitude
Rises 16:33:24 0° 220° (SW) 3,136 ? -11.1°
Reaches altitude 10° 16:36:13 10° 237° (WSW) 2,215 ? -11.5°
Maximum altitude 16:39:55 21° 286° (WNW) 1,596 ? -12.0°
Drops below altitude 10° 16:43:37 10° 335° (NNW) 2,214 ? -12.5°
Sets 16:46:27 0° 352° (N) 3,134 ? -12.9°
